TIANWANG 1B (TW-1B)
1 40927U 15051C   19209.39959986  .00006169  00000-0  94454-4 0  9995
2 40927  97.1360 254.8226 0006593 225.3602 261.6335 15.54698366216189
TIANWANG 1A (TW-1A)
1 40928U 15051D   19209.50053554  .00001871  00000-0  47397-4 0  9994
2 40928  97.1432 239.9225 0009532 294.1609 172.5866 15.40937803215309
LAPAN A2
1 40931U 15052B   19209.19949082  .00000963  00000-0  45167-4 0  9998
2 40931   6.0013 134.8684 0013106 351.6903   8.3345 14.76612543207114
LQSAT
1 40958U 15057A   19209.50433261 -.00000030  00000-0  29569-5 0  9999
2 40958  97.8966 277.6215 0019549 112.1997 248.1287 14.73084606204660
CHUBUSAT 2
1 41338U 16012B   19208.54969179 +.00000209 +00000-0 +94741-5 0  9990
2 41338 031.0023 257.8236 0013719 128.1078 232.0796 15.00161186188758
CHUBUSAT 3
1 41339U 16012C   19209.17993117  .00000176  00000-0  68610-5 0  9999
2 41339  31.0109 251.8614 0013448 141.8242 218.3349 15.00336197188849
OUFTI-1
1 41458U 16025C   19208.79381573 +.00001486 +00000-0 +79669-4 0  9999
2 41458 098.1023 297.6271 0165479 225.2778 133.4876 15.05863707178455
E-STAR-2
1 41459U 16025D   19209.48419966 -.00000145  00000-0 -26042-5 0  9996
2 41459  98.0999 297.9931 0166434 224.2712 134.5100 15.05495986178533
AAUSAT 4
1 41460U 16025E   19208.81280805 +.00000365 +00000-0 +22790-4 0  9999
2 41460 098.0953 298.6232 0156739 218.8609 140.1238 15.07393112178566
NUSAT 1
1 41557U 16033B   19208.89747063 +.00000729 +00000-0 +29981-4 0  9990
2 41557 097.4180 296.1708 0014585 153.4125 206.7865 15.27268245176077
BEESAT 4
1 41619U 16040W   19208.86657614 +.00000726 +00000-0 +33656-4 0  9997
2 41619 097.3650 270.3567 0009784 241.5796 118.4455 15.23187000159825
PRATHAM
1 41783U 16059A   19209.13084023  .00000016  00000-0  12475-4 0  9996
2 41783  98.0647 267.8367 0032221 259.5343 100.2228 14.63001066151312
ALSAT 1N
1 41789U 16059G   19209.42756105  .00000054  00000-0  19378-4 0  9992
2 41789  98.0674 270.2071 0027073 247.8170 112.0160 14.64251924151468
NAYIF 1
1 42017U 17008BX  19208.72473698  .00000815  00000-0  34911-4 0  9992
2 42017  97.4009 275.4136 0007254  44.4393 315.7426 15.25594929135871
MAX VALIER SAT
1 42778U 17036P   19208.71194311 +.00000520 +00000-0 +25681-4 0  9995
2 42778 097.3517 265.5141 0014193 088.3172 271.9690 15.22058229116179
